Hourly Data Report for October 15, 2013

All times are specified in Local Standard Time (LST). Add 1 hour to adjust for Daylight Saving Time where and when it is observed.

PETAWAWA AWOS 2
ONTARIO

45°57'00.000" N
77°19'00.000" W
130.10 m
6106396
71625
YWA

Download Data

Hourly Data (October 2013)
Hourly Data Report for October 15, 2013
Temp Definition
°C
Dew Point Temp Definition
°C
Rel Hum Definition
%
Wind Dir Definition
10's deg

Wind Spd Definition
km/h
Visibility Definition
km
Stn Press Definition
kPa
Hmdx Definition


Wind Chill Definition


Weather Definition


TIME
00:00 3.2 2.4 94 23 4 15.0 101.12      
01:00 1.6 1.4 99 25 4 15.0 101.11      
02:00 2.0 1.8 99 26 6 15.0 101.10      
03:00 1.8 1.1 95 26 6 15.0 101.07      
04:00 0.8 0.2 96 24 6 15.0 101.04      
05:00 0.1 -0.2 98 24 6 15.0 101.03      
06:00 0.3 0.3 100 24 6 15.0 101.02      
07:00 0.9 0.5 97 24 6 15.0 101.00      
08:00 3.8 3.0 95 26 4 15.0 100.99      
09:00 6.8 4.8 87   0 15.0 100.95      
10:00 10.0 5.2 72 8 6 15.0 100.88      
11:00 11.6 6.2 69 11 7 15.0 100.79      
12:00 13.3 8.3 72 10 9 15.0 100.71      
13:00 13.4 8.9 74 11 7 15.0 100.59      
14:00 14.0 9.4 74 13 11 15.0 100.48      
15:00 14.2 10.1 76 11 11 15.0 100.37      
16:00 14.3 10.2 76 13 7 15.0 100.33      
17:00 13.9 10.0 77 12 11 15.0 100.27      
18:00 13.5 10.2 80 14 9 15.0 100.22      
19:00 13.0 10.6 85 14 13 15.0 100.14      
20:00 12.7 10.7 88 13 9 15.0 100.11      
21:00 12.7 10.7 88 12 13 15.0 100.05      
22:00 12.7 10.6 87 11 7 15.0 100.00      
23:00 12.5 10.4 87 11 7 15.0 99.91      

Notes on Data Quality.

Legend

  • E = Estimated
  • M = Missing
  • NA = Not Available
  • ‡ = Partner data that is not subject to review by the National Climate Archives
Date modified: